Regional Weather Roundup
Issued by NWS

Home | Current Version | Previous Version | Graphics & Text | Print | Product List | Glossary On
Versions: 1 2 3 4 5 6 7 8 9 10 11 12 13 14 15 16 17 18 19 20 21 22 23 24 25 26 27 28 29 30 31 32 33 34 35 36 37 38 39 40 41 42 43 44 45 46 47 48 49 50
000
ASUS43 KLSX 290207
RWRMO

WEATHER SUMMARY FOR MISSOURI
NATIONAL WEATHER SERVICE SPRINGFIELD MO
800 PM CST SUN DEC 28 2014

NOTE: "FAIR" INDICATES FEW OR NO CLOUDS BELOW 12,000 FEET WITH NO
       SIGNIFICANT WEATHER AND/OR OBSTRUCTIONS TO VISIBILITY.
       CURRENT SKY AND/OR WEATHER CONDITIONS ARE NOT AVAILABLE FOR
       CHILLICOTHE AND FARMINGTON.

MOZ001>031-035>038-043-044-053-054-290300-
...NORTHERN AND WESTERN MISSOURI...

CITY           SKY/WX    TMP DP  RH WIND       PRES   REMARKS
KANSAS CTY INT MOCLDY    31  19  61 S5        30.17R WCI  26
KANSAS C DTWN  MOCLDY    34  20  56 CALM      30.18R
LEE`S SUMMIT   PTCLDY    32  20  61 SE6       30.18S WCI  26
ST JOSEPH      CLOUDY    30  21  69 CALM      30.18R
CHILLICOTHE      N/A     30  22  72 S3        30.20R
KIRKSVILLE     MOCLDY    29  19  66 CALM      30.19S

$$
MOZ066>068-077>081-088>096-101>105-290300-
...SOUTHWEST MISSOURI...

CITY           SKY/WX    TMP DP  RH WIND       PRES   REMARKS
SPRINGFIELD    FAIR      27  21  78 CALM      30.16R
JOPLIN         CLEAR     26  23  88 NE3       30.17S

$$
MOZ032>034-039>042-045>050-055>058-069>072-290300-
...CENTRAL MISSOURI...

CITY           SKY/WX    TMP DP  RH WIND       PRES   REMARKS
COLUMBIA       FAIR      31  21  66 CALM      30.20R
JEFFERSON CITY CLEAR     26  22  84 CALM      30.21S
ROLLA          CLEAR     26  22  84 E3        30.17R
SEDALIA        PTCLDY    32  17  54 CALM      30.19S
WHITEMAN AFB   PTCLDY    36  19  51 S6        30.16S
WARRENSBURG    PTCLDY    30  21  69 CALM      30.20R
OSAGE BEACH    CLEAR     28  21  74 CALM      30.18S

$$
MOZ051-052-059>065-290300-
...EAST CENTRAL MISSOURI...

CITY           SKY/WX    TMP DP  RH WIND       PRES   REMARKS
ST LOUIS INTL  CLEAR     30  23  75 CALM      30.22S
SPIRIT OF STL  CLEAR     26  22  84 CALM      30.22R
ST CHARLES     CLEAR     27  26  96 N3        30.23R

$$
MOZ072>076-082>087-097>100-106>115-290300-
...SOUTH CENTRAL AND SOUTHEAST MISSOURI...

CITY           SKY/WX    TMP DP  RH WIND       PRES   REMARKS
CAPE GIRARDEAU CLOUDY    34  28  79 NE7       30.22S WCI  28
FARMINGTON     CLEAR     27  25  93 CALM      30.21R
POPLAR BLUFF   CLOUDY    35  27  72 VRB3      30.22R
WEST PLAINS    CLEAR     27  22  81 E3        30.18R

$$


USA.gov is the U.S. government's official web portal to all federal, state and local government web resources and services.